Regional Weather Roundup
Issued by NWS

Home | Current Version | Previous Version | Graphics & Text | Print | Product List | Glossary On
Versions: 1 2 3 4 5 6 7 8 9 10 11 12 13 14 15 16 17 18 19 20 21 22 23 24 25 26 27 28 29 30 31 32 33 34 35 36 37 38 39 40 41 42 43 44 45 46 47 48 49 50
000
ASUS43 KIND 260159
RWRIN

WEATHER ROUNDUP FOR INDIANA
NATIONAL WEATHER SERVICE INDIANAPOLIS IN
1000 PM EDT THU MAY 25 2017

NOTE: "FAIR" INDICATES FEW OR NO CLOUDS BELOW 12,000 FEET WITH NO
SIGNIFICANT WEATHER AND/OR OBSTRUCTIONS TO VISIBILITY.

* - STATION DOES NOT REPORT WEATHER SUCH AS PRECIPITATION OR FOG.

+ - STATION NOT QUALITY CONTROLLED BY THE NATIONAL WEATHER SERVICE.
    USE DATA WITH CAUTION...ESPECIALLY DEWPOINT AND RELATIVE
    HUMIDITY OBSERVATIONS.

INZ001>003-010>013-019-020-260300-
NORTHWEST INDIANA

CITY           SKY/WX    TMP DP  RH WIND       PRES   REMARKS
GARY /AIRPORT/ PTCLDY    55  50  82 CALM      29.74R
MICHIGAN CITY+ CLEAR     48  48 100 W3        29.73R
MONTICELLO +   CLOUDY    59  55  85 W3        29.72R
RENSSELAER +   CLOUDY    59  52  77 NW5       29.74R

$$

LMZ046-743>745-260300-
SOUTHERN LAKE MICHIGAN

STATION/POSITION TIME  TEMP    WIND        PRES    WAVE
                       AIR SEA DIR/SP/G            HT
                 (UTC) (F)     (DEG/KT/KT) (MB)    (FT)
BURNS HARBOR     0140   54     290/  5/  8 1007.1R
MICHIGAN CITY    0130   51     230/  6/  7   N/A
5NW MICH CITY    0150   50 51  270/  8/ 12   N/A     3

$$

INZ004-005-014>016-021>024-260300-
NORTH CENTRAL INDIANA

CITY           SKY/WX    TMP DP  RH WIND       PRES   REMARKS
GOSHEN         CLEAR     56  51  84 W9        29.68R
PERU/GRISSOM   CLEAR     58  57  97 W9        29.70R
SOUTH BEND     CLEAR     50  49  96 W7        29.70R

$$

INZ006>009-017-018-025>027-260300-
NORTHEAST INDIANA

CITY           SKY/WX    TMP DP  RH WIND       PRES   REMARKS
FORT WAYNE     MOCLDY    59  54  83 W13       29.68R
KENDALLVILLE + MOCLDY    58  55  92 W6        29.67R

$$

INZ028-029-035-036-043>045-051>053-260300-
WEST CENTRAL INDIANA

CITY           SKY/WX    TMP DP  RH WIND       PRES   REMARKS
CRAWFORDSVL +  CLEAR     55  54  95 W7        29.75R
GREENCASTLE +  CLEAR     54  52  94 CALM      29.76R
LAFAYETTE      MOCLDY    58  56  93 W3        29.73R
TERRE HAUTE    CLEAR     59  56  89 CALM      29.75R

$$

INZ030>032-037>040-046>048-054>057-064-065-260300-
CENTRAL INDIANA

CITY           SKY/WX    TMP DP  RH WIND       PRES   REMARKS
INDIANAPOLIS   CLEAR     58  53  84 W8        29.74R
-EAGLE CREEK   CLEAR     60  53  77 W6        29.73R
KOKOMO +       CLEAR     59  54  83 W12       29.72R
SHELBYVILLE    MOCLDY    62  53  72 W6        29.73R

$$

INZ033-034-041-042-049-050-058-059-260300-
EAST CENTRAL INDIANA

CITY           SKY/WX    TMP DP  RH WIND       PRES   REMARKS
MUNCIE         CLOUDY    61  55  81 W9        29.71R
RICHMOND +     CLOUDY    57  54  88 W12       29.71R FOG

$$

INZ060-061-067>069-081>083-085>088-260300-
SOUTHWEST INDIANA

CITY           SKY/WX    TMP DP  RH WIND       PRES   REMARKS
EVANSVILLE     CLEAR     65  54  67 CALM      29.77R
HUNTINGBURG *+ CLEAR     63  56  78 SW6       29.77R

$$

INZ062-063-066-070>080-084-089>092-260300-
SOUTH CENTRAL AND SOUTHEAST INDIANA

CITY           SKY/WX    TMP DP  RH WIND       PRES   REMARKS
BLOOMINGTON    CLEAR     57  53  86 CALM      29.75R
MADISON *+     CLEAR     61  54  77 W6        29.78R
SEYMOUR +      CLEAR     61  54  77 W3        29.75R

$$





USA.gov is the U.S. government's official web portal to all federal, state and local government web resources and services.